This demonstration page uses our WeatherBlox Daily Observations layout. Learn more.

Left ArrowRight Arrow

Hourly Observations for April 13, 2018

Temp ( °F °C ) Dew Point ( °F °C ) Humidity (%) Winds ( mph kmh ) Pressure ( in mb ) Visibility ( mi km ) Precip ( " mm )
12:51 am 00:51 Clear 58 14.4 10 -12.2 15 15 WNW 13 20 29.73 1007 10 16 0.00 0.00
1:51 am 01:51 Mostly Clear 59 15 8 -13.3 13 13 WNW 22 35 29.72 1007 10 16 0.00 0.00
2:51 am 02:51 Clear 57 13.9 8 -13.3 14 14 WNW 21 33 29.72 1007 10 16 0.00 0.00
3:51 am 03:51 Clear 57 13.9 8 -13.3 14 14 W 29 46 29.75 1007 10 16 0.00 0.00
4:51 am 04:51 Clear 55 12.8 7 -13.9 14 14 WNW 22 35 29.77 1008 10 16 0.00 0.00
5:51 am 05:51 Sunny 52 11.1 6 -14.4 15 15 WNW 20 31 29.82 1010 10 16 0.00 0.00
6:51 am 06:51 Sunny 53 11.7 1 -17.2 12 12 WNW 18 30 29.87 1011 10 16 0.00 0.00
7:51 am 07:51 Sunny 54 12.2 5 -15 14 14 NNW 23 37 29.93 1014 10 16 0.00 0.00
8:51 am 08:51 Sunny 57 13.9 -4 -20 8 8 NW 22 35 29.96 1015 10 16 0.00 0.00
9:51 am 09:51 Sunny 58 14.4 -4 -20 8 8 NW 24 39 29.97 1015 10 16 0.00 0.00
10:51 am 10:51 Sunny 60 15.6 -5 -20.6 7 7 WNW 25 41 29.98 1015 10 16 0.00 0.00
11:51 am 11:51 Sunny 64 17.8 -6 -21.1 6 6 WNW 30 48 29.96 1015 10 16 0.00 0.00
12:51 pm 12:51 Sunny 64 17.8 -7 -21.7 5 5 W 23 37 29.95 1014 10 16 0.00 0.00
1:51 pm 13:51 Sunny 65 18.3 -7 -21.7 5 5 W 16 26 29.93 1014 10 16 0.00 0.00
2:51 pm 14:51 Sunny 66 18.9 -8 -22.2 5 5 NW 24 39 29.91 1013 10 16 0.00 0.00
3:51 pm 15:51 Sunny 66 18.9 -9 -22.8 4 4 NW 26 43 29.90 1012 10 16 0.00 0.00
4:51 pm 16:51 Sunny 66 18.9 -9 -22.8 4 4 WNW 21 33 29.90 1013 10 16 0.00 0.00
5:51 pm 17:51 Sunny 65 18.3 -8 -22.2 5 5 NW 20 31 29.91 1013 10 16 0.00 0.00
6:51 pm 18:51 Clear 62 16.7 -4 -20 7 7 WNW 16 26 29.95 1014 10 16 0.00 0.00
7:51 pm 19:51 Clear 59 15 -4 -20 7 7 NW 17 28 29.98 1015 10 16 0.00 0.00
8:51 pm 20:51 Clear 58 14.4 -7 -21.7 7 7 NW 10 17 30.01 1016 10 16 0.00 0.00
9:51 pm 21:51 Clear 58 14.4 -5 -20.6 7 7 N 18 30 30.03 1017 10 16 0.00 0.00
10:51 pm 22:51 Clear 56 13.3 -2 -18.9 9 9 W 7 11 30.06 1018 10 16 0.00 0.00
11:51 pm 23:51 Clear 55 12.8 -1 -18.3 10 10 WNW 21 33 30.07 1018 10 16 0.00 0.00

Powered by AerisWeather